Regional Weather Roundup
Issued by NWS Upton, NY

Current Version | Previous Version | Text Only | Print | Product List | Glossary On
Versions: 1 2 3 4 5 6 7 8 9 10 11 12 13 14 15 16 17 18 19 20 21 22 23 24 25 26 27 28 29 30 31 32 33 34 35 36 37 38 39 40 41 42 43 44 45 46 47 48 49 50
000 ASUS41 KOKX 021808 RWROKX REGIONAL WEATHER ROUNDUP NATIONAL WEATHER SERVICE NEW YORK NY 200 PM EDT TUE JUN 02 2015 NOTE: "FAIR" INDICATES FEW OR NO CLOUDS BELOW 12,000 FEET WITH NO SIGNIFICANT WEATHER AND/OR OBSTRUCTIONS TO VISIBILITY. NYZ071-072-176-178-NJZ106-104-021900- NEW YORK CITY METRO AREA CITY SKY/WX TMP DP RH WIND PRES REMARKS CENTRAL PARK LGT RAIN 54 50 86 VRB6 30.17S LAGUARDIA APRT LGT RAIN 54 49 83 N9G18 30.14S KENNEDY INTL CLOUDY 55 50 83 N10 30.15S NEWARK/LIBERTY LGT RAIN 57 52 83 N10 30.14F BRNX BOT. GARD N/A 54 50 87 NE9 30.16F TETERBORO LGT RAIN 54 50 87 N5 30.14S $$ NYZ177-179-078>081-021900- LONG ISLAND NEW YORK CITY SKY/WX TMP DP RH WIND PRES REMARKS FARMINGDALE CLOUDY 54 50 86 NE10 30.14F ISLIP LGT RAIN 53 49 86 N14 30.12S SHIRLEY LGT RAIN 53 49 86 N10 30.15R WESTHAMPTON CLOUDY 53 50 89 N12 30.15R MONTAUK POINT N/A 53 49 86 N9 30.14F $$ NYZ052-065-067-021900- HUDSON VALLEY CITY SKY/WX TMP DP RH WIND PRES REMARKS WHITE PLAINS LGT RAIN 52 49 89 N7 30.14F FOG NEWBURGH DRIZZLE 52 50 93 NE5 30.18S MONTGOMERY LGT RAIN 55 50 83 N6 30.16F POUGHKEEPSIE CLOUDY 55 49 80 N3 30.16F ALBANY CLOUDY 58 47 66 VRB3 30.17F $$ NJZ001-105-106-008-010-013-015-019>022-104-021900- NEW JERSEY CITY SKY/WX TMP DP RH WIND PRES REMARKS NEWARK/LIBERTY LGT RAIN 57 52 83 N10 30.14F TETERBORO LGT RAIN 54 50 87 N5 30.14S CALDWELL LGT RAIN 53 50 89 NE7 30.15F FOG MORRISTOWN LGT RAIN 59 57 94 NE8 30.15S FOG SOMERVILLE LGT RAIN 56 52 86 N3 30.13S FOG SUSSEX RAIN 53 50 89 NE6 30.16F FOG ANDOVER N/A 52 51 97 VRB6 30.15F TRENTON LGT RAIN 54 52 93 NE6 30.13S FOG MILLVILLE CLOUDY 58 55 90 NE10 30.09F ATLANTIC CITY LGT RAIN 56 54 93 NE12 30.09F FOG WRIGHTSTOWN CLOUDY 55 52 88 NE9 30.10F TOMS RIVER CLOUDY N/A N/A N/A NE13 30.12S BELMAR CLOUDY 54 46 76 N10 30.13S $$ PAZ047>061-062-071-021900- EASTERN PENNSYLVANIA CITY SKY/WX TMP DP RH WIND PRES REMARKS PHILADELPHIA LGT RAIN 56 52 86 NE13 30.13S ALLENTOWN RAIN 54 51 90 NE5 30.15R FOG SCRANTON LGT RAIN 57 52 83 CALM 30.15S $$ CTZ002-004>006-009-010-012-RIZ004-006-007-MAZ004-011-015-021900- SOUTHERN NEW ENGLAND IN CT CITY SKY/WX TMP DP RH WIND PRES REMARKS BRADLEY INTL CLOUDY 53 47 79 N10 30.17S HARTFORD LGT RAIN 53 47 79 N10 30.17S DANBURY LGT RAIN 53 48 83 NE5 30.17F WTRBRY/OXFORD CLOUDY 52 45 76 NE8 30.17S FOG BRIDGEPORT LGT RAIN 53 49 86 NE9 30.16S FOG MERIDEN LGT RAIN 53 47 79 N8 30.17R NEW HAVEN CLOUDY 52 48 86 N13 30.16S CHESTER DRIZZLE 52 48 87 N7 30.15S GROTON LGT RAIN 53 49 86 N12 30.14R WILLIMANTIC CLOUDY 51 46 83 NE8 30.16F IN RI CITY SKY/WX TMP DP RH WIND PRES REMARKS PROVIDENCE LGT RAIN 50 46 86 N15 30.16S BLOCK ISLAND CLOUDY 52 46 82 NE14G22 30.13F WESTERLY LGT RAIN 51 49 92 N13 30.14S IN MA CITY SKY/WX TMP DP RH WIND PRES REMARKS BOSTON LGT RAIN 48 46 93 NE14 30.19F WORCESTER CLOUDY 47 43 86 NE8 30.17S WESTFIELD CLOUDY 53 46 77 N9 30.18S PROVINCETOWN CLOUDY 52 45 76 N16G22 30.15F NANTUCKET LGT RAIN 54 50 86 N17 30.09S $$ ANZ330-335-338-340-345-350-353-355-021900- COASTAL MARINE OBSERVATIONS STATION/POSITION TIME SKY/WX TEMP WIND PRES VSBY WAVE AIR SEA DIR/SP/G HT/PER (UTC) (F) (DEG/KT/KT) (MB) (MI) (FT/S) NY HARB ENTRANCE 1750 53 56 20/ 14/ 16 1020.0 4/ 6 4S FIRE IS 1703 56 N/A 3/ 6 20S FIRE ISLAND 1750 53 57 40/ 16/ 19 1019.6 4/ 6 GREAT SOUTH BAY 1730 53 65 10/ 12/ 16 N/A 23SW MTP 1750 51 56 20/ 17/ 19 1019.6 4/ 5 HUDSON CANYON NOT AVBL KINGS POINT 1700 53 57 30/ 6/ 10 1020.3 CENTRAL LI SOUND 1700 52 56 40/ 10/ 14 N/A EASTERN LI SOUND 1715 52 10/ 12/ 16 N/A ROBBINS REEF 1700 53 10/ 13/ 15 1019.5 $$ >>>>>>>>>>>>>>>>>>>>>>>>>>>> KEY <<<<<<<<<<<<<<<<<<<<<<<<<<< > < > SKY/WX - SKY CONDITION/PRESENT WEATHER < > TMP - TEMPERATURE IN FAHRENHEIT < > DP - DEWPOINT IN FAHRENHEIT < > RH - RELATIVE HUMIDITY IN PERCENT < > WIND - DIRECTION AND SPEED IN MPH < > PRES - MEAN SEA LEVEL PRESSURE IN INCHES OF HG < > WCI - WIND CHILL INDEX < > VSB - VISIBILITY IN MILES < > HX - HEAT INDEX < > TC - TEMPERATURE IN CELSIUS < > VRB - VARIABLE WIND DIRECTION < > < >>>>>>>>>>>>>>>>>>>>>>>>>>>> KEY <<<<<<<<<<<<<<<<<<<<<<<<<<<

USA.gov is the U.S. government's official web portal to all federal, state and local government web resources and services.